Location: Chervonnoye
(48.6000°N, 34.4000°E)
Time: 05:54:09
(UTC+00:00)

Cosmos 2322 Rocket - Pass Details

Date: 23 November 2020
Orbit: 834 x 849 km, 71.0° (Epoch: 18 January)

Event Time Altitude Azimuth Distance (km) Brightness Sun altitude
Rises 15:18:59 0° 263° (W) 3,409 7.2 -13.6°
Reaches altitude 10° 15:22:20 10° 282° (WNW) 2,475 5.6 -14.2°
Maximum altitude 15:26:01 17° 323° (NW) 2,002 4.4 -14.8°
Drops below altitude 10° 15:29:43 10° 4° (N) 2,476 4.5 -15.4°
Enters shadow 15:32:02 - 19° (NNE) 3,096 4.8 -15.7°
